Tracking 30995 objects as of 5-Jul-2025
HD Live streaming from Space Station
objects crossing your sky now

ARIANE 5 R/B

Track ARIANE 5 R/B now!


NORAD ID: 36746
Int'l Code: 2010-032C
Perigee: 283.6 km
Apogee: 32,154.8 km
Inclination: 1.3 °
Period: 563.2 minutes
Semi major axis: 22590 km
RCS: 22.3476 m2 (large)
Launch date: June 26, 2010
Source: France (FR)
Launch site: FRENCH GUIANA (FRGUI)

Note: This is a ROCKET BODY
Your satellite tracking list
Your tracking list is empty




NASA's NSSDC Master Catalog

Two Line Element Set (TLE):
1 36746U 10032C   25185.74380207  .00001996  00000-0  76155-3 0  9996
2 36746   1.3428 160.4090 7054195 353.2355   0.7010  2.55694864132545
Source of the keplerian elements: AFSPC